AAL305 KEYW-KDFW

Flight info

Callsign AAL305
Flight time N/A
Altitude 34000
Route BUFTT1 GUFFS THMPR Y290 BACCA ROZZI Y280 REDFN EYEKO HRV PNUTS WHINY4
Aircraft A319/M-SDE3FGHIRWY/LB1

Departure

Time 2026-05-01 13:54
Airport Key West International Airport (KEYW)

Arrival

Time N/A
Airport Dallas Fort Worth International Airport (KDFW)
Time Latitude Longitude Altitude Speed Heading
2026-05-01 13:28 24.55440 -81.75460 13 ft 0 kts 180°
2026-05-01 13:45 24.55443 -81.75460 12 ft 3 kts 180°
2026-05-01 13:45 24.55468 -81.75460 14 ft 2 kts 180°
2026-05-01 13:46 24.55486 -81.75458 14 ft 4 kts 243°
2026-05-01 13:46 24.55489 -81.75434 12 ft 2 kts 269°
2026-05-01 13:46 24.55489 -81.75449 12 ft 4 kts 269°
2026-05-01 13:46 24.55489 -81.75464 14 ft 0 kts 269°
2026-05-01 13:49 24.55489 -81.75465 14 ft 0 kts 269°
2026-05-01 13:49 24.55489 -81.75477 14 ft 4 kts 269°
2026-05-01 13:49 24.55488 -81.75524 12 ft 8 kts 269°
2026-05-01 13:49 24.55488 -81.75553 12 ft 0 kts 270°
2026-05-01 13:50 24.55488 -81.75561 12 ft 4 kts 270°
2026-05-01 13:50 24.55525 -81.75597 12 ft 9 kts 325°
2026-05-01 13:50 24.55529 -81.75664 12 ft 9 kts 269°
2026-05-01 13:51 24.55528 -81.75733 12 ft 9 kts 269°
2026-05-01 13:51 24.55528 -81.75810 12 ft 12 kts 269°
2026-05-01 13:51 24.55526 -81.75912 12 ft 14 kts 269°
2026-05-01 13:51 24.55526 -81.76024 12 ft 15 kts 270°
2026-05-01 13:52 24.55525 -81.76138 12 ft 15 kts 269°
2026-05-01 13:52 24.55524 -81.76254 12 ft 15 kts 269°
2026-05-01 13:52 24.55522 -81.76371 12 ft 15 kts 269°
2026-05-01 13:52 24.55521 -81.76489 11 ft 16 kts 269°
2026-05-01 13:53 24.55520 -81.76609 12 ft 16 kts 269°
2026-05-01 13:53 24.55607 -81.76639 11 ft 0 kts 90°
2026-05-01 13:54 24.55607 -81.76584 11 ft 35 kts 90°
2026-05-01 13:54 24.55613 -81.75999 12 ft 115 kts 89°
2026-05-01 13:54 24.55624 -81.74962 361 ft 139 kts 90°
2026-05-01 13:54 24.55680 -81.73899 1031 ft 140 kts 87°
2026-05-01 13:55 24.55759 -81.72833 1720 ft 140 kts 87°
2026-05-01 13:55 24.56100 -81.71835 2312 ft 147 kts 47°
2026-05-01 13:55 24.57043 -81.71381 2831 ft 153 kts
2026-05-01 13:55 24.58097 -81.71374 3277 ft 160 kts 355°
2026-05-01 13:56 24.59286 -81.71457 3501 ft 182 kts 354°
2026-05-01 13:56 24.60618 -81.71615 3752 ft 204 kts 344°
2026-05-01 13:56 24.61872 -81.72470 3943 ft 227 kts 310°
2026-05-01 13:56 24.62944 -81.73867 4286 ft 251 kts 309°
2026-05-01 13:57 24.64112 -81.75399 4823 ft 268 kts 309°
2026-05-01 13:57 24.64930 -81.76467 5320 ft 273 kts 309°
2026-05-01 13:57 24.66486 -81.78688 6277 ft 282 kts 295°
2026-05-01 13:57 24.67391 -81.80623 6975 ft 288 kts 300°
2026-05-01 13:58 24.68593 -81.82407 7712 ft 293 kts 311°
2026-05-01 13:58 24.70093 -81.83938 8476 ft 297 kts 321°
2026-05-01 13:58 24.71719 -81.85348 9276 ft 298 kts 315°
2026-05-01 13:58 24.73131 -81.87011 10099 ft 298 kts 310°
2026-05-01 13:59 24.74521 -81.88803 10382 ft 319 kts 309°
2026-05-01 13:59 24.76007 -81.90737 10535 ft 343 kts 310°
2026-05-01 13:59 24.77609 -81.92762 10867 ft 356 kts 311°
2026-05-01 13:59 24.79280 -81.94799 11475 ft 360 kts 312°
2026-05-01 14:00 24.80989 -81.96829 12158 ft 362 kts 312°
2026-05-01 14:00 24.82714 -81.98848 12878 ft 362 kts 313°
2026-05-01 14:00 24.84451 -82.00867 13577 ft 364 kts 313°
2026-05-01 14:00 24.86195 -82.02892 14198 ft 365 kts 313°
2026-05-01 14:01 24.87941 -82.04927 14791 ft 367 kts 313°
2026-05-01 14:01 24.89104 -82.06285 15169 ft 369 kts 313°
2026-05-01 14:01 24.90871 -82.08349 15747 ft 371 kts 313°
2026-05-01 14:01 24.92643 -82.10425 16322 ft 373 kts 313°
2026-05-01 14:02 24.94425 -82.12514 16907 ft 376 kts 313°
2026-05-01 14:02 24.96220 -82.14620 17485 ft 378 kts 313°
2026-05-01 14:02 24.98024 -82.16736 18059 ft 380 kts 313°
2026-05-01 14:02 24.99843 -82.18870 18582 ft 383 kts 312°
2026-05-01 14:03 25.01672 -82.21021 19064 ft 386 kts 312°
2026-05-01 14:03 25.03515 -82.23189 19555 ft 388 kts 312°
2026-05-01 14:03 25.05364 -82.25367 20027 ft 391 kts 312°
2026-05-01 14:03 25.07225 -82.27559 20486 ft 393 kts 312°
2026-05-01 14:04 25.09104 -82.29772 20940 ft 396 kts 311°
2026-05-01 14:04 25.10991 -82.31994 21369 ft 398 kts 311°
2026-05-01 14:04 25.12891 -82.34235 21807 ft 401 kts 311°
2026-05-01 14:04 25.14802 -82.36489 22252 ft 403 kts 311°
2026-05-01 14:05 25.16722 -82.38754 22677 ft 405 kts 311°
2026-05-01 14:05 25.18651 -82.41033 23077 ft 408 kts 311°
2026-05-01 14:05 25.20594 -82.43329 23462 ft 410 kts 311°
2026-05-01 14:05 25.22545 -82.45638 23799 ft 412 kts 311°
2026-05-01 14:06 25.24508 -82.47959 24123 ft 415 kts 311°
2026-05-01 14:06 25.26482 -82.50295 24438 ft 417 kts 311°
2026-05-01 14:06 25.28463 -82.52640 24750 ft 419 kts 311°
2026-05-01 14:06 25.30456 -82.54999 25056 ft 421 kts 311°
2026-05-01 14:07 25.32436 -82.57342 25348 ft 423 kts 311°
2026-05-01 14:07 25.34451 -82.59722 25649 ft 426 kts 311°
2026-05-01 14:07 25.36501 -82.62150 25951 ft 428 kts 311°
2026-05-01 14:08 25.40580 -82.66990 26550 ft 432 kts 311°
2026-05-01 14:08 25.42608 -82.69398 26839 ft 434 kts 311°
2026-05-01 14:08 25.44697 -82.71877 27126 ft 436 kts 311°
2026-05-01 14:08 25.46741 -82.74308 27414 ft 438 kts 311°
2026-05-01 14:09 25.48818 -82.76781 27699 ft 440 kts 311°
2026-05-01 14:09 25.50907 -82.79276 27976 ft 442 kts 311°
2026-05-01 14:09 25.53003 -82.81777 28234 ft 444 kts 311°
2026-05-01 14:09 25.55112 -82.84291 28492 ft 447 kts 311°
2026-05-01 14:10 25.57230 -82.86813 28745 ft 449 kts 311°
2026-05-01 14:10 25.59360 -82.89349 28992 ft 451 kts 311°
2026-05-01 14:10 25.61499 -82.91899 29302 ft 451 kts 311°
2026-05-01 14:10 25.63630 -82.94441 29682 ft 451 kts 311°
2026-05-01 14:11 25.65762 -82.96992 30055 ft 450 kts 311°
2026-05-01 14:11 25.70013 -83.02076 30690 ft 449 kts 311°
2026-05-01 14:11 25.72136 -83.04615 31016 ft 448 kts 311°
2026-05-01 14:12 25.74251 -83.07151 31345 ft 448 kts 311°
2026-05-01 14:12 25.76363 -83.09682 31683 ft 447 kts 311°
2026-05-01 14:12 25.78478 -83.12213 32023 ft 446 kts 311°
2026-05-01 14:12 25.80589 -83.14736 32401 ft 445 kts 311°
2026-05-01 14:13 25.82687 -83.17250 32768 ft 444 kts 311°
2026-05-01 14:13 25.84780 -83.19767 33073 ft 444 kts 311°
2026-05-01 14:13 25.86877 -83.22294 33395 ft 444 kts 311°
2026-05-01 14:13 25.88968 -83.24820 33729 ft 444 kts 311°
2026-05-01 14:14 25.91051 -83.27337 33967 ft 444 kts 311°
2026-05-01 14:14 25.93149 -83.29869 34006 ft 445 kts 311°
2026-05-01 14:14 25.97350 -83.34921 34003 ft 445 kts 311°
2026-05-01 14:15 26.01554 -83.39976 34005 ft 445 kts 311°
2026-05-01 14:15 26.05758 -83.45038 34006 ft 445 kts 311°
2026-05-01 14:16 26.09954 -83.50109 34001 ft 445 kts 311°
2026-05-01 14:16 26.14138 -83.55186 34024 ft 445 kts 310°
2026-05-01 14:17 26.18328 -83.60262 34019 ft 445 kts 310°
2026-05-01 14:17 26.22507 -83.65324 34017 ft 444 kts 310°
2026-05-01 14:18 26.26692 -83.70397 34011 ft 444 kts 310°
2026-05-01 14:18 26.30153 -83.74614 34017 ft 444 kts 310°
2026-05-01 14:19 26.34991 -83.80513 34011 ft 444 kts 310°
2026-05-01 14:19 26.39161 -83.85587 34005 ft 443 kts 310°
2026-05-01 14:20 26.45406 -83.93203 34021 ft 443 kts 310°
2026-05-01 14:21 26.49552 -83.98267 34020 ft 442 kts 310°
2026-05-01 14:21 26.53689 -84.03334 34016 ft 441 kts 310°
2026-05-01 14:22 26.59881 -84.10912 34003 ft 440 kts 309°
2026-05-01 14:22 26.63995 -84.15972 33999 ft 439 kts 309°
2026-05-01 14:23 26.68110 -84.21029 33993 ft 439 kts 309°
2026-05-01 14:23 26.72222 -84.26087 33990 ft 439 kts 309°
2026-05-01 14:24 26.76330 -84.31147 34017 ft 439 kts 309°
2026-05-01 14:24 26.80426 -84.36202 34012 ft 438 kts 309°
2026-05-01 14:25 26.84527 -84.41249 34004 ft 437 kts 309°
2026-05-01 14:25 26.88611 -84.46288 34002 ft 437 kts 309°
2026-05-01 14:26 26.94725 -84.53859 33994 ft 437 kts 309°
2026-05-01 14:27 26.98803 -84.58910 33992 ft 437 kts 309°
2026-05-01 14:27 27.02876 -84.63957 33991 ft 437 kts 309°
2026-05-01 14:28 27.08955 -84.71503 34013 ft 436 kts 308°
2026-05-01 14:28 27.13003 -84.76549 34010 ft 434 kts 308°
2026-05-01 14:29 27.17043 -84.81581 33997 ft 433 kts 308°
2026-05-01 14:30 27.25109 -84.91639 33985 ft 433 kts 308°
2026-05-01 14:31 27.31141 -84.99180 33975 ft 432 kts 308°
2026-05-01 14:31 27.35157 -85.04212 33974 ft 432 kts 308°
2026-05-01 14:32 27.39170 -85.09247 33997 ft 432 kts 308°
2026-05-01 14:32 27.43175 -85.14274 33997 ft 430 kts 308°
2026-05-01 14:33 27.47164 -85.19281 33997 ft 429 kts 308°
2026-05-01 14:33 27.51111 -85.24250 33991 ft 428 kts 307°
2026-05-01 14:34 27.55073 -85.29257 33979 ft 428 kts 307°
2026-05-01 14:34 27.58995 -85.34301 33974 ft 425 kts 303°
2026-05-01 14:35 27.62129 -85.39895 33974 ft 422 kts 298°
2026-05-01 14:35 27.65181 -85.45555 33971 ft 422 kts 298°
2026-05-01 14:36 27.68221 -85.51204 33968 ft 421 kts 298°
2026-05-01 14:36 27.71249 -85.56856 33965 ft 421 kts 298°
2026-05-01 14:37 27.74283 -85.62500 33964 ft 420 kts 298°
2026-05-01 14:37 27.77305 -85.68145 33960 ft 420 kts 297°
2026-05-01 14:38 27.80323 -85.73797 33953 ft 420 kts 297°
2026-05-01 14:38 27.83325 -85.79409 33952 ft 420 kts 298°
2026-05-01 14:39 27.86349 -85.85052 33951 ft 420 kts 298°
2026-05-01 14:39 27.89364 -85.90705 33948 ft 420 kts 297°
2026-05-01 14:40 27.92368 -85.96362 33947 ft 420 kts 297°
2026-05-01 14:40 27.95371 -86.02026 33947 ft 420 kts 297°
2026-05-01 14:41 27.98373 -86.07684 33946 ft 420 kts 297°
2026-05-01 14:41 28.01373 -86.13344 33966 ft 420 kts 297°
2026-05-01 14:42 28.04368 -86.19002 33983 ft 418 kts 297°
2026-05-01 14:42 28.07351 -86.24639 33983 ft 416 kts 297°
2026-05-01 14:43 28.10320 -86.30257 33976 ft 415 kts 297°
2026-05-01 14:43 28.13267 -86.35861 33969 ft 414 kts 297°
2026-05-01 14:44 28.16218 -86.41462 33958 ft 413 kts 297°
2026-05-01 14:44 28.20607 -86.49821 33947 ft 413 kts 297°
2026-05-01 14:45 28.25013 -86.58219 33950 ft 413 kts 297°
2026-05-01 14:46 28.27949 -86.63807 33948 ft 412 kts 297°
2026-05-01 14:46 28.32000 -86.72360 33947 ft 407 kts 286°
2026-05-01 14:47 28.33783 -86.78460 33969 ft 407 kts 285°
2026-05-01 14:48 28.36454 -86.87579 33964 ft 405 kts 285°
2026-05-01 14:48 28.39110 -86.96683 33953 ft 405 kts 285°
2026-05-01 14:49 28.42647 -87.08861 33936 ft 407 kts 285°
2026-05-01 14:50 28.46175 -87.21048 33932 ft 408 kts 285°
2026-05-01 14:51 28.48832 -87.30225 33929 ft 408 kts 285°
2026-05-01 14:52 28.51167 -87.38379 33945 ft 407 kts 286°
2026-05-01 14:53 28.53798 -87.47538 33949 ft 406 kts 286°
2026-05-01 14:53 28.55555 -87.53631 33947 ft 405 kts 286°
2026-05-01 14:54 28.57290 -87.59727 33943 ft 405 kts 285°
2026-05-01 14:54 28.59023 -87.65817 33938 ft 405 kts 286°
2026-05-01 14:55 28.60762 -87.71906 33937 ft 405 kts 285°
2026-05-01 14:55 28.62493 -87.77995 33943 ft 404 kts 285°
2026-05-01 14:56 28.64215 -87.84067 33947 ft 403 kts 285°
2026-05-01 14:56 28.65930 -87.90133 33964 ft 403 kts 285°
2026-05-01 14:57 28.67650 -87.96206 33951 ft 402 kts 285°
2026-05-01 14:57 28.70221 -88.05305 33941 ft 402 kts 285°
2026-05-01 14:58 28.71918 -88.11329 33941 ft 402 kts 285°
2026-05-01 14:58 28.73623 -88.17388 33943 ft 401 kts 285°
2026-05-01 14:59 28.75319 -88.23443 33942 ft 401 kts 285°
2026-05-01 14:59 28.77004 -88.29497 33941 ft 400 kts 285°
2026-05-01 15:00 28.79539 -88.38564 33939 ft 400 kts 285°
2026-05-01 15:01 28.81219 -88.44606 33937 ft 400 kts 285°
2026-05-01 15:01 28.82896 -88.50654 33935 ft 399 kts 285°
2026-05-01 15:02 28.84567 -88.56693 33930 ft 399 kts 285°
2026-05-01 15:02 28.86235 -88.62728 33923 ft 399 kts 285°
2026-05-01 15:03 28.88069 -88.68706 33920 ft 402 kts 293°
2026-05-01 15:03 28.91428 -88.73869 33922 ft 411 kts 309°
2026-05-01 15:04 28.95420 -88.78550 33947 ft 411 kts 308°
2026-05-01 15:04 28.99407 -88.83256 33920 ft 413 kts 308°
2026-05-01 15:05 29.03393 -88.87978 33929 ft 413 kts 308°
2026-05-01 15:05 29.07372 -88.92690 33927 ft 411 kts 308°
2026-05-01 15:06 29.11345 -88.97393 33941 ft 411 kts 308°
2026-05-01 15:06 29.15309 -89.02082 33935 ft 410 kts 308°
2026-05-01 15:07 29.19242 -89.06753 33943 ft 410 kts 308°
2026-05-01 15:07 29.23190 -89.11455 33941 ft 409 kts 308°
2026-05-01 15:08 29.27139 -89.16159 33939 ft 410 kts 307°
2026-05-01 15:08 29.31102 -89.20887 33920 ft 412 kts 307°
2026-05-01 15:09 29.35075 -89.25622 33918 ft 413 kts 307°
2026-05-01 15:09 29.39060 -89.30376 33918 ft 414 kts 307°
2026-05-01 15:10 29.43050 -89.35144 33912 ft 415 kts 307°
2026-05-01 15:10 29.49042 -89.42318 33922 ft 415 kts 307°
2026-05-01 15:11 29.55030 -89.49502 33955 ft 415 kts 307°
2026-05-01 15:12 29.58445 -89.54729 33948 ft 407 kts 298°
2026-05-01 15:12 29.63194 -89.62845 33948 ft 408 kts 298°
2026-05-01 15:14 29.71094 -89.76340 33938 ft 408 kts 298°
2026-05-01 15:14 29.75835 -89.84468 33945 ft 408 kts 298°
2026-05-01 15:15 29.82136 -89.95328 33945 ft 408 kts 298°
2026-05-01 15:16 29.88251 -90.06316 33985 ft 407 kts 295°
2026-05-01 15:18 29.95453 -90.20448 34012 ft 409 kts 295°
2026-05-01 15:19 30.01237 -90.31628 33981 ft 406 kts 295°
2026-05-01 15:19 30.05566 -90.40037 33971 ft 407 kts 295°
2026-05-01 15:20 30.09885 -90.48448 33961 ft 408 kts 295°
2026-05-01 15:21 30.12780 -90.54094 33989 ft 409 kts 295°
2026-05-01 15:21 30.15682 -90.59764 33975 ft 410 kts 295°
2026-05-01 15:22 30.20043 -90.68287 33971 ft 411 kts 295°
2026-05-01 15:22 30.22955 -90.73985 33972 ft 412 kts 295°
2026-05-01 15:23 30.25861 -90.79694 33976 ft 412 kts 294°
2026-05-01 15:23 30.28769 -90.85411 33975 ft 413 kts 294°
2026-05-01 15:24 30.31679 -90.91144 33975 ft 413 kts 294°
2026-05-01 15:24 30.34586 -90.96871 33991 ft 413 kts 294°
2026-05-01 15:25 30.37493 -91.02616 34001 ft 413 kts 294°
2026-05-01 15:25 30.40401 -91.08359 34038 ft 414 kts 294°
2026-05-01 15:26 30.43308 -91.14112 34019 ft 414 kts 294°
2026-05-01 15:26 30.46218 -91.19885 34016 ft 415 kts 294°
2026-05-01 15:27 30.49130 -91.25676 34006 ft 416 kts 294°
2026-05-01 15:28 30.53490 -91.34346 34004 ft 417 kts 294°
2026-05-01 15:28 30.56411 -91.40158 34021 ft 417 kts 294°
2026-05-01 15:29 30.60788 -91.48891 34030 ft 417 kts 294°
2026-05-01 15:30 30.66113 -91.59549 34043 ft 416 kts 294°
2026-05-01 15:31 30.75269 -91.77936 34053 ft 414 kts 294°
2026-05-01 15:32 30.81015 -91.89542 34050 ft 414 kts 294°
2026-05-01 15:34 30.89556 -92.06828 34067 ft 408 kts 294°